Tracking 19575 objects as of 19-Feb-2019
HD Live streaming from Space Station
objects crossing your sky now

SL-3 DEB

Track SL-3 DEB now!
10-day predictions


NORAD ID: 25655
Int'l Code: 1988-032D
Perigee: 531.2 km
Apogee: 597.0 km
Inclination: 97.4 °
Period: 95.8 minutes
Semi major axis: 6935 km
RCS: 0.0386 m2 (small)
Launch date: April 20, 1988
Source: Commonwealth of Independent States (former USSR) (CIS)
Launch site: TYURATAM MISSILE AND SPACE COMPLEX (TTMTR)

Note: This is SATELLITE DEBRIS
aabbcc
Your satellite tracking list
Your tracking list is empty




NASA's NSSDC Master Catalog

Two Line Element Set (TLE):
1 25655U 88032D   19049.65572208 +.00000298 +00000-0 +25902-4 0  9993
2 25655 097.4427 086.1768 0047444 061.6955 054.9147 15.03234477663044
Source of the keplerian elements: AFSPC